[[{"header":{"parameterUnit":"m.s-1","parameterCategory":1,"la1":30.2991,"la2":30.254,"lo1":-89.0895,"lo2":-89.0444,"dy":0.0017,"dx":0.0017,"nx":28,"ny":28,"refTime":"2024-02-21T03:00:00:Z","depth":0,"parameterNumber":2,"parameterNumberName":"U-component_of_WINDS"},"data":[0,0,0,0,0,0,0,0,0,0,0,0,0,0,0,0,0,0,0,0,0,0,0,0,0,0,0,0,0,0,0,0,0,0,0,0,0,0,0,0,0,0,0,0,0,0,0,0,0,0,0,0,0,0,0,0,0,0,-1.5649,-1.5649,0,-1.5636,-1.5636,-1.5636,-1.5604,-1.5603,-1.5602,-1.5602,-1.5588,-1.5589,-1.5589,0,0,0,0,0,0,0,0,0,0,0,0,0,-1.5646,-1.5647,-1.5649,-1.5649,-1.5649,-1.5636,-1.5636,-1.5636,-1.5604,-1.5603,-1.5602,-1.5601,-1.5588,-1.5588,-1.5589,0,0,0,0,0,0,0,0,0,0,0,0,0,-1.5642,-1.5647,-1.5649,-1.5631,-1.5629,-1.5636,-1.5636,-1.5636,-1.5604,-1.5603,-1.5602,-1.5601,-1.5588,-1.5588,-1.5589,-1.5612,0,0,-1.559,-1.559,0,0,0,0,0,0,0,0,-1.5642,-1.5642,-1.5634,-1.5632,-1.563,-1.562,-1.563,-1.5628,-1.5604,-1.5614,-1.5602,-1.56,-1.56,-1.5599,-1.5599,-1.5611,-1.5611,-1.559,-1.559,-1.5591,-1.5591,0,0,0,0,0,0,0,-1.5643,-1.5642,-1.5644,-1.5634,-1.5632,-1.5624,-1.5622,-1.563,-1.5613,-1.5613,-1.561,-1.5609,-1.5599,-1.5599,-1.5598,-1.5611,-1.559,-1.5591,-1.5591,-1.5591,-1.5642,-1.5643,0,0,0,0,0,0,-1.5645,-1.5643,-1.5644,-1.5643,-1.5634,-1.5625,-1.5623,-1.5625,-1.5612,-1.561,-1.561,-1.5608,-1.5598,-1.5598,-1.5598,-1.5624,-1.5591,-1.5591,-1.5591,-1.5641,-1.5642,-1.5644,0,0,0,0,0,0,-1.5646,-1.5646,-1.5645,-1.5643,-1.5642,-1.5626,-1.5628,-1.5625,-1.5625,-1.561,-1.5607,-1.5613,-1.5598,-1.5597,-1.5609,-1.5623,-1.5591,-1.5592,-1.564,-1.5641,-1.5643,-1.5677,0,0,0,0,0,0,-1.5646,-1.5646,-1.5654,-1.5643,-1.5642,-1.5656,-1.5629,-1.5625,-1.5626,-1.5623,-1.5613,-1.561,-1.5597,-1.5608,-1.5609,-1.5623,-1.5592,-1.5638,-1.564,-1.5642,-1.5674,-1.568,-1.5684,0,0,0,0,0,-1.5646,-1.5664,-1.5655,-1.5655,-1.5652,-1.5657,-1.5656,-1.5641,-1.5627,-1.5635,-1.5626,-1.561,-1.5622,-1.561,-1.5611,-1.5625,-1.5637,-1.564,-1.5642,-1.5672,-1.5679,-1.5684,0,0,0,0,0,0,-1.5677,-1.5662,-1.5652,-1.5667,-1.5664,-1.5651,-1.5661,-1.5648,-1.5648,-1.5645,-1.5626,-1.5624,-1.5638,-1.5633,-1.562,-1.5647,-1.5627,-1.563,-1.565,-1.5655,-1.566,-1.5661,-1.5592,0,0,0,0,0,-1.5686,-1.5691,-1.5678,-1.5693,-1.5691,-1.5677,-1.5678,-1.5667,-1.5662,-1.566,-1.5652,-1.5648,-1.5651,-1.5653,-1.5655,-1.5674,-1.5672,-1.5685,-1.5689,-1.5693,-1.5695,-1.5706,-1.5711,-1.5652,-1.5652,-1.5652,0,0,-1.5704,-1.5697,-1.5701,-1.5699,-1.5695,-1.57,-1.5676,-1.5682,-1.5686,-1.5661,-1.5672,-1.5666,-1.566,-1.5676,-1.5683,-1.5672,-1.5712,-1.5696,-1.57,-1.57,-1.5709,-1.5714,-1.572,-1.5653,-1.5653,-1.5653,0,0,-1.574,-1.5735,-1.5747,-1.5743,-1.5737,-1.5728,-1.5731,-1.5721,-1.5716,-1.5727,-1.5708,-1.5713,-1.5718,-1.5715,-1.5714,-1.5751,-1.5736,-1.5752,-1.5777,-1.5787,-1.5792,-1.5796,-1.5808,-1.5813,-1.5755,-1.5755,-1.5755,0,-1.5763,-1.577,-1.5755,-1.5763,-1.5763,-1.5741,-1.5753,-1.5751,-1.5746,-1.5747,-1.5735,-1.5742,-1.5737,-1.5752,-1.5761,-1.5761,-1.5764,-1.5753,-1.5792,-1.5796,-1.58,-1.5812,-1.5817,-1.5757,-1.5757,-1.5757,-1.5756,0,-1.5799,-1.5805,-1.5815,-1.5811,-1.5813,-1.5823,-1.5809,-1.5813,-1.5802,-1.5794,-1.5805,-1.5798,-1.5799,-1.5802,-1.5791,-1.5816,-1.5809,-1.5796,-1.5775,-1.5807,-1.5818,-1.5823,-1.576,-1.5759,-1.5758,-1.5758,0,0,-1.5852,-1.5841,-1.5845,-1.5843,-1.5836,-1.584,-1.585,-1.5851,-1.5854,-1.5852,-1.586,-1.5866,-1.5853,-1.5852,-1.5841,-1.5851,-1.588,-1.5836,-1.5835,-1.5844,-1.5907,-1.5916,-1.5922,-1.5871,-1.5872,-1.5873,-1.5907,0,-1.5885,-1.5901,-1.5888,-1.5906,-1.5911,-1.5892,-1.5901,-1.5897,-1.5891,-1.5895,-1.5887,-1.5891,-1.5875,-1.5874,-1.5883,-1.5875,-1.5892,-1.5872,-1.5878,-1.5878,-1.5879,-1.5928,-1.5938,-1.597,-1.5911,-1.5912,-1.5913,0,-1.5925,-1.5926,-1.5944,-1.5937,-1.5939,-1.5946,-1.5946,-1.5951,-1.5947,-1.5942,-1.5942,-1.5929,-1.5938,-1.592,-1.5933,-1.5919,-1.5921,-1.5918,-1.5919,-1.5918,-1.5896,-1.5927,-1.598,-1.5985,-1.5919,-1.5919,-1.5918,0,-1.5962,-1.5967,-1.5979,-1.5978,-1.597,-1.5976,-1.5973,-1.5968,-1.597,-1.597,-1.5971,-1.5973,-1.5974,-1.5975,-1.5964,-1.5951,-1.5979,-1.5958,-1.5974,-1.5974,-1.5979,-1.5979,-1.6033,-1.5983,-1.5983,-1.5982,-1.5982,0,-1.6,-1.6012,-1.5995,-1.6002,-1.6016,-1.6001,-1.6015,-1.601,-1.6007,-1.6013,-1.5997,-1.6003,-1.5987,-1.5992,-1.5984,-1.5996,-1.5997,-1.5992,-1.599,-1.5993,-1.5994,-1.5993,-1.599,-1.5984,-1.5983,-1.5983,-1.5983,0,-1.6042,-1.6031,-1.6043,-1.6035,-1.6033,-1.6043,-1.6036,-1.6043,-1.6036,-1.6044,-1.6045,-1.6034,-1.6039,-1.6028,-1.6031,-1.6025,-1.6043,-1.6037,-1.6044,-1.6042,-1.6058,-1.6056,-1.6112,-1.6119,-1.6065,-1.6066,-1.6066,0,-1.6066,-1.6075,-1.6068,-1.6071,-1.6069,-1.6074,-1.6075,-1.6062,-1.6065,-1.6062,-1.6069,-1.6073,-1.6075,-1.6085,-1.6077,-1.608,-1.6074,-1.6093,-1.6074,-1.6077,-1.6073,-1.6072,-1.6073,-1.6097,-1.6097,-1.6098,-1.6098,0,-1.611,-1.6105,-1.6107,-1.6109,-1.6112,-1.6112,-1.6112,-1.6115,-1.6102,-1.6105,-1.611,-1.6112,-1.6116,-1.612,-1.6122,-1.6119,-1.6106,-1.6105,-1.6108,-1.6111,-1.6115,-1.6113,-1.6054,-1.6103,-1.6103,-1.6102,-1.6102,-1.6102,-1.6143,-1.615,-1.6147,-1.6151,-1.6149,-1.615,-1.6155,-1.615,-1.6153,-1.6155,-1.6148,-1.6155,-1.6152,-1.6153,-1.6152,-1.6157,-1.6148,-1.6154,-1.6155,-1.6156,-1.6159,-1.6115,-1.6158,-1.6158,-1.6157,-1.6157,-1.6157,0,-1.6186,-1.6183,-1.6187,-1.6187,-1.619,-1.6179,-1.6178,-1.6182,-1.6188,-1.6187,-1.619,-1.6196,-1.62,-1.6194,-1.6197,-1.6203,-1.6197,-1.6204,-1.6203,-1.6203,-1.6167,-1.6163,-1.6209,-1.6209,-1.6209,-1.6209,-1.6209,-1.6209,-1.6208,-1.622,-1.6214,-1.6225,-1.6222,-1.6229,-1.6229,-1.623,-1.6229,-1.6236,-1.624,-1.6236,-1.6233,-1.6236,-1.624,-1.6238,-1.6239,-1.6248,-1.6244,-1.621,-1.6205,-1.62,-1.6196,-1.6249,-1.6249,-1.6279,-1.628,-1.628]},{"header":{"parameterUnit":"m.s-1","parameterCategory":1,"la1":30.2991,"la2":30.254,"lo1":-89.0895,"lo2":-89.0444,"dy":0.0017,"dx":0.0017,"nx":28,"ny":28,"refTime":"2024-02-21T03:00:00:Z","depth":0,"parameterNumber":3,"parameterNumberName":"V-component_of_WINDS"},"data":[0,0,0,0,0,0,0,0,0,0,0,0,0,0,0,0,0,0,0,0,0,0,0,0,0,0,0,0,0,0,0,0,0,0,0,0,0,0,0,0,0,0,0,0,0,0,0,0,0,0,0,0,0,0,0,0,0,0,3.1442,3.1443,0,3.1519,3.152,3.1521,3.1532,3.1531,3.1531,3.153,3.1604,3.1606,3.1609,0,0,0,0,0,0,0,0,0,0,0,0,0,3.1301,3.1304,3.1442,3.1443,3.1444,3.1519,3.152,3.1521,3.1532,3.1531,3.1531,3.153,3.1603,3.1606,3.1609,0,0,0,0,0,0,0,0,0,0,0,0,0,3.1369,3.1305,3.1442,3.1459,3.1461,3.1519,3.152,3.1521,3.1532,3.1531,3.153,3.1529,3.1602,3.1606,3.161,3.1654,0,0,3.1621,3.1623,0,0,0,0,0,0,0,0,3.1365,3.1374,3.1455,3.1458,3.146,3.1515,3.1497,3.1566,3.1533,3.1505,3.153,3.1529,3.1575,3.1581,3.1597,3.1658,3.1661,3.1622,3.1624,3.1626,3.1627,0,0,0,0,0,0,0,3.136,3.1371,3.1472,3.1456,3.146,3.1461,3.147,3.151,3.1545,3.1508,3.1509,3.1518,3.1576,3.1594,3.1599,3.1662,3.1622,3.1625,3.1628,3.1629,3.1764,3.1766,0,0,0,0,0,0,3.1353,3.1367,3.147,3.1475,3.1409,3.1465,3.1474,3.1498,3.1544,3.155,3.1519,3.1518,3.1587,3.1595,3.1602,3.1659,3.1626,3.1629,3.1632,3.1763,3.1765,3.1766,0,0,0,0,0,0,3.135,3.1362,3.1467,3.1421,3.1435,3.1468,3.1495,3.1501,3.1518,3.1553,3.1558,3.1531,3.1587,3.1596,3.1642,3.1661,3.1631,3.1635,3.1762,3.1764,3.1765,3.1772,0,0,0,0,0,0,3.1346,3.1361,3.1379,3.1421,3.1437,3.1507,3.1497,3.1503,3.1526,3.1526,3.1566,3.1571,3.1587,3.1636,3.1646,3.1666,3.1638,3.176,3.1763,3.1765,3.177,3.1773,3.1777,0,0,0,0,0,3.1341,3.1376,3.138,3.1392,3.146,3.1508,3.1517,3.1535,3.1527,3.1545,3.1568,3.157,3.1658,3.1641,3.1652,3.1673,3.1759,3.1762,3.1765,3.1768,3.1773,3.1776,0,0,0,0,0,0,3.1333,3.1382,3.1387,3.1437,3.1468,3.151,3.1533,3.1539,3.1572,3.1571,3.1591,3.16,3.1645,3.1663,3.1644,3.172,3.1707,3.1713,3.1706,3.1711,3.1714,3.1709,3.1641,0,0,0,0,0,3.1337,3.1373,3.1413,3.1454,3.147,3.1499,3.152,3.1532,3.1565,3.1578,3.1603,3.1634,3.1668,3.169,3.1724,3.1772,3.1782,3.1793,3.1796,3.1799,3.1803,3.1832,3.1837,3.1775,3.1775,3.1775,0,0,3.1346,3.1377,3.1398,3.1453,3.1479,3.1515,3.151,3.1547,3.1574,3.1583,3.1628,3.1648,3.1683,3.1731,3.1753,3.1748,3.1822,3.1802,3.1804,3.1807,3.1835,3.1841,3.1846,3.1777,3.1777,3.1777,0,0,3.138,3.1407,3.1445,3.1472,3.1512,3.1532,3.1541,3.1582,3.1596,3.1643,3.1651,3.1682,3.1741,3.1766,3.1787,3.1833,3.1837,3.1843,3.1861,3.1889,3.1894,3.1898,3.1916,3.1922,3.1848,3.1848,3.1848,0,3.1386,3.1442,3.1463,3.1502,3.1526,3.1538,3.1576,3.16,3.1648,3.1664,3.1658,3.1734,3.1758,3.1813,3.1825,3.1841,3.1852,3.1839,3.1891,3.1896,3.1901,3.1918,3.1924,3.1848,3.1848,3.1848,3.1848,0,3.1447,3.1485,3.1511,3.156,3.1587,3.1625,3.1652,3.1676,3.1686,3.1706,3.1754,3.1784,3.1825,3.1838,3.1847,3.1895,3.1891,3.1888,3.1875,3.1907,3.1923,3.193,3.1849,3.1849,3.1849,3.1849,0,0,3.1477,3.154,3.1549,3.1572,3.1619,3.1648,3.1687,3.1729,3.175,3.1783,3.1816,3.1867,3.1865,3.1888,3.1901,3.1925,3.1962,3.1919,3.192,3.1927,3.2017,3.202,3.2027,3.1964,3.1965,3.1967,3.2014,0,3.1518,3.159,3.1611,3.167,3.1707,3.172,3.1754,3.1785,3.1805,3.1838,3.1859,3.1895,3.189,3.1904,3.1929,3.1952,3.198,3.1949,3.1995,3.1996,3.1986,3.2035,3.2038,3.2081,3.2021,3.2022,3.2023,0,3.1575,3.1612,3.1676,3.172,3.1736,3.1766,3.1808,3.1839,3.1875,3.1888,3.1915,3.1926,3.1966,3.1952,3.2008,3.1986,3.2006,3.2021,3.2023,3.2028,3.2012,3.2043,3.2096,3.2103,3.2033,3.2032,3.2031,0,3.1593,3.1658,3.1706,3.1725,3.1777,3.1798,3.182,3.1855,3.188,3.1915,3.1932,3.197,3.1992,3.2021,3.2042,3.203,3.2097,3.2084,3.2108,3.2108,3.2122,3.2121,3.218,3.2133,3.2133,3.2133,3.2133,0,3.1637,3.1675,3.1715,3.1744,3.1788,3.1812,3.1854,3.1877,3.1909,3.1942,3.1954,3.1984,3.201,3.2044,3.206,3.2105,3.2113,3.2125,3.2129,3.2124,3.2123,3.2138,3.2136,3.2135,3.2135,3.2134,3.2134,0,3.1663,3.1691,3.1744,3.179,3.1802,3.1833,3.1871,3.19,3.1921,3.1963,3.1974,3.2006,3.2047,3.2071,3.2121,3.2132,3.2182,3.2184,3.2171,3.2173,3.2196,3.2194,3.2267,3.2279,3.2224,3.2225,3.2225,0,3.169,3.1721,3.1771,3.1795,3.1818,3.1856,3.1883,3.1907,3.1934,3.1979,3.2002,3.2044,3.2079,3.2143,3.217,3.2209,3.2213,3.2236,3.2219,3.2214,3.2215,3.2213,3.2217,3.2239,3.2239,3.224,3.224,0,3.1734,3.1747,3.1786,3.1829,3.1861,3.1895,3.193,3.1949,3.1979,3.2008,3.2051,3.2079,3.2132,3.2174,3.2215,3.2237,3.2244,3.2246,3.2253,3.2249,3.2241,3.2247,3.218,3.2244,3.2243,3.2243,3.2243,3.2243,3.1763,3.1791,3.1832,3.1874,3.1904,3.1936,3.1966,3.1992,3.2029,3.2076,3.2088,3.2133,3.217,3.2227,3.225,3.2285,3.2281,3.2292,3.2295,3.2298,3.2299,3.2235,3.2292,3.2292,3.2292,3.2292,3.2292,0,3.1809,3.1836,3.1875,3.1925,3.1958,3.1964,3.2003,3.203,3.2071,3.2105,3.2141,3.2191,3.2232,3.2263,3.2305,3.2327,3.2331,3.2337,3.2336,3.2341,3.23,3.2289,3.2333,3.2333,3.2333,3.2333,3.2333,3.2333,3.1837,3.1886,3.1904,3.1969,3.1995,3.2042,3.2064,3.2094,3.2122,3.2178,3.2213,3.2234,3.2268,3.2312,3.235,3.2358,3.2373,3.2379,3.2388,3.2348,3.2344,3.234,3.233,3.2382,3.2382,3.2426,3.2427,3.2427]}]]